Location: Boiro
(42.6475°N, 8.8834°W)
Time: 17:12:56
(UTC+01:00)

Explorer 11/Cluster Stage 4 - Pass Details

Date: 03 December 2021
Orbit: 467 x 1255 km, 28.8° (Epoch: 23 January)

Event Time Altitude Azimuth Distance (km) Brightness Sun altitude
Exits shadow 06:22:28 23° 214° (SW) 2,259 8.6 -26.1°
Maximum altitude 06:25:12 28° 183° (S) 2,079 8.7 -25.6°
Drops below altitude 10° 06:31:53 10° 128° (SE) 3,221 10.5 -24.4°
Sets 06:35:17 0° 118° (ESE) 4,186 11.5 -23.8°
